FW6924 Weather Reports


Display with metric or nautical units.
time (UTC)temp
F
wind
direction
speed
MPH
gust
MPH
rain 1hr
in
rain 24hr
in
rain mn
in
humidity
%
barometer
mb
20260901122002 76 65 0.0 1.0 0.00 0.08 0.01 96 1014.3
20260901120023 76 65 0.0 0.0 0.00 0.08 0.01 96 1014.3
20260901115000 75 65 0.0 0.0 0.00 0.08 0.01 96 1014.2
20260901113000 75 66 0.0 0.0 0.00 0.08 0.01 96 1014.1
20260901112000 74 66 0.0 0.0 0.00 0.08 0.01 95 1014.0
20260901111000 74 66 0.0 0.0 0.00 0.08 0.01 95 1013.9
20260901104000 74 67 0.0 0.0 0.01 0.08 0.01 96 1014.0
20260901103002 74 67 0.0 0.0 0.01 0.08 0.01 95 1014.0
20260901102000 74 67 0.0 0.0 0.01 0.08 0.01 95 1013.9
20260901100003 74 67 0.0 0.0 0.01 0.08 0.01 95 1013.8
20260901094002 74 67 0.0 0.0 0.00 0.07 0.00 95 1013.6
20260901092002 75 67 0.0 0.0 0.00 0.07 0.00 95 1013.7
20260901091000 75 67 0.0 0.0 0.00 0.07 0.00 95 1013.7
20260901090005 75 67 0.0 0.0 0.00 0.07 0.00 95 1013.7
20260901085000 75 67 0.0 0.0 0.00 0.07 0.00 95 1013.7
20260901084002 75 67 0.0 0.0 0.00 0.07 0.00 95 1013.6
20260901083000 75 67 0.0 0.0 0.00 0.07 0.00 95 1013.6
20260901082002 75 67 0.0 0.0 0.00 0.07 0.00 95 1013.6
20260901081000 75 67 0.0 0.0 0.00 0.07 0.00 95 1013.5
20260901080005 75 67 0.0 0.0 0.00 0.07 0.00 95 1013.6
20260901075000 75 67 0.0 0.0 0.00 0.07 0.00 95 1013.7
20260901074000 75 69 0.0 0.0 0.00 0.07 0.00 95 1013.6
20260901072000 75 71 0.0 0.0 0.00 0.07 0.00 95 1013.7
20260901071000 75 71 0.0 0.0 0.00 0.07 0.00 95 1013.7
20260901070002 75 71 0.0 0.0 0.00 0.07 0.00 95 1013.8
20260901063959 75 71 0.0 0.0 0.00 0.07 0.00 95 1014.0
20260901063002 75 71 0.0 1.0 0.00 0.07 0.00 95 1014.0
20260901062000 75 71 0.0 0.0 0.00 0.07 0.00 95 1014.1
20260901061002 75 71 0.0 0.0 0.00 0.07 0.00 95 1014.0
20260901060002 75 71 0.0 1.0 0.00 0.07 0.00 95 1014.2
20260901054959 75 71 0.0 2.0 0.00 0.07 0.00 95 1014.3
20260901053959 75 72 0.0 1.0 0.00 0.07 0.00 95 1014.4
20260901052959 75 72 0.0 0.0 0.00 0.07 0.00 95 1014.6
20260901050959 76 72 0.0 0.0 0.00 0.07 0.00 94 1014.7
20260901050006 76 72 0.0 0.0 0.00 0.07 0.00 94 1014.7
20260901045002 76 72 0.0 1.0 0.00 0.07 0.00 94 1014.8
20260901044004 76 72 0.0 3.0 0.00 0.07 0.00 94 1014.9
20260901043002 76 74 1.0 3.0 0.00 0.07 0.00 94 1015.0
20260901042004 76 81 0.0 0.0 0.00 0.07 0.00 94 1015.2
20260901041002 76 82 0.0 0.0 0.00 0.07 0.00 94 1015.2
20260901040008 76 82 0.0 0.0 0.00 0.07 0.00 94 1015.2
20260901034004 76 82 0.0 0.0 0.00 0.07 0.07 94 1015.3
20260901033002 76 82 0.0 0.0 0.00 0.07 0.07 94 1015.3
20260901032004 76 82 0.0 3.0 0.00 0.07 0.07 94 1015.3
20260901031002 76 96 0.0 4.0 0.00 0.07 0.07 94 1015.4
20260901030006 76 84 0.0 2.0 0.00 0.07 0.07 94 1015.3
20260901025002 76 84 0.0 1.0 0.00 0.07 0.07 94 1015.4
20260901024003 76 84 0.0 2.0 0.00 0.07 0.07 94 1015.4
20260901023002 76 34 0.0 1.0 0.00 0.07 0.07 94 1015.5
20260901022003 76 34 0.0 2.0 0.00 0.07 0.07 94 1015.5
20260901021002 76 34 0.0 3.0 0.00 0.07 0.07 94 1015.3
20260901020006 76 67 0.0 0.0 0.00 0.07 0.07 93 1015.4
20260901015002 76 67 0.0 0.0 0.00 0.07 0.07 93 1015.0
20260901014002 76 67 0.0 0.0 0.01 0.07 0.07 93 1015.0
20260901013002 76 67 0.0 0.0 0.02 0.07 0.07 93 1015.0
20260901012002 76 67 0.0 0.0 0.03 0.07 0.07 93 1014.7
20260901011002 76 67 0.0 0.0 0.03 0.07 0.07 93 1014.6
20260901010003 77 65 0.0 0.0 0.03 0.07 0.07 92 1014.6
20260901005003 77 65 0.0 0.0 0.03 0.07 0.07 92 1014.7
20260901004001 77 65 0.0 0.0 0.03 0.06 0.06 92 1014.8
20260901002001 77 51 0.0 0.0 0.01 0.04 0.04 92 1014.8
20260901001003 77 333 0.0 0.0 0.01 0.04 0.04 92 1014.8
20260901000003 77 38 0.0 4.0 0.01 0.04 0.04 91 1014.8
20260831235001 77 349 2.0 4.0 0.01 0.04 0.04 91 1014.8
20260831233001 77 277 1.0 5.0 0.02 0.03 0.03 91 1014.9
20260831231001 78 346 2.0 8.0 0.02 0.03 0.03 90 1014.9
20260831225001 79 304 4.0 9.0 0.02 0.03 0.03 87 1014.7
20260831224001 81 345 3.0 9.0 0.02 0.02 0.02 84 1014.6
20260831223001 82 10 1.0 7.0 0.01 0.01 0.01 83 1014.5
20260831222001 82 132 1.0 4.0 0.01 0.01 0.01 81 1014.2
20260831221001 83 113 3.0 9.0 0.01 0.01 0.01 80 1014.0
20260831220004 83 104 3.0 7.0 0.01 0.01 0.01 80 1013.6
20260831215001 84 119 4.0 10.0 0.01 0.03 0.01 80 1013.3
20260831214003 85 124 7.0 14.0 0.00 0.02 0.00 76 1013.3
20260831213000 86 93 7.0 13.0 0.00 0.02 0.00 72 1013.4
20260831212003 88 85 7.0 14.0 0.00 0.02 0.00 70 1013.5
20260831210005 91 323 1.0 4.0 0.00 0.02 0.00 62 1013.2
20260831205001 91 304 0.0 4.0 0.00 0.11 0.00 62 1013.2
20260831204002 91 336 1.0 4.0 0.00 0.11 0.00 60 1013.3
20260831203001 91 355 1.0 5.0 0.00 0.11 0.00 60 1013.3
20260831202003 92 279 1.0 8.0 0.00 0.11 0.00 61 1013.2
20260831201001 93 261 2.0 4.0 0.00 0.11 0.00 62 1013.4
20260831195000 92 323 1.0 6.0 0.00 0.11 0.00 61 1013.5
20260831194002 92 351 2.0 6.0 0.00 0.11 0.00 62 1013.4
20260831193001 91 124 1.0 4.0 0.00 0.11 0.00 62 1013.4
20260831192003 92 13 2.0 5.0 0.00 0.11 0.00 62 1013.6
20260831191001 92 329 3.0 6.0 0.00 0.11 0.00 62 1013.7
20260831190005 92 320 1.0 5.0 0.00 0.11 0.00 59 1013.7
20260831185000 92 78 2.0 5.0 0.00 0.21 0.00 64 1013.8
20260831184000 92 340 2.0 6.0 0.00 0.21 0.00 67 1014.0
20260831183003 91 304 2.0 6.0 0.00 0.21 0.00 65 1014.2
20260831182000 90 234 1.0 4.0 0.00 0.21 0.00 67 1014.4
20260831181003 91 340 1.0 4.0 0.00 0.21 0.00 66 1014.5
20260831180003 90 350 1.0 5.0 0.00 0.21 0.00 66 1014.5
20260831175002 90 167 0.0 5.0 0.00 0.21 0.00 65 1014.5
20260831174002 90 332 1.0 3.0 0.00 0.21 0.00 65 1014.7
20260831173000 89 313 1.0 4.0 0.00 0.21 0.00 66 1014.8
20260831172021 89 171 1.0 2.0 0.00 0.21 0.00 67 1015.0
20260831171000 89 173 0.0 2.0 0.00 0.21 0.00 69 1015.2
20260831170005 89 175 1.0 4.0 0.00 0.21 0.00 70 1015.4
20260831165001 88 115 1.0 4.0 0.00 0.21 0.00 70 1015.5
20260831164002 88 201 2.0 6.0 0.00 0.21 0.00 75 1015.5
20260831163000 88 128 2.0 6.0 0.00 0.21 0.00 72 1015.7
20260831162003 87 124 1.0 6.0 0.00 0.21 0.00 74 1015.8
20260831161000 87 93 2.0 6.0 0.00 0.21 0.00 77 1015.8
20260831160005 86 96 1.0 6.0 0.00 0.21 0.00 77 1016.0
20260831155000 87 76 0.0 2.0 0.00 0.21 0.00 78 1016.0
20260831154021 85 86 1.0 6.0 0.00 0.21 0.00 79 1016.0
20260831152021 86 280 2.0 7.0 0.00 0.21 0.00 80 1016.0
20260831150004 86 86 2.0 7.0 0.00 0.21 0.00 80 1016.0
20260831145000 85 94 1.0 8.0 0.00 0.21 0.00 81 1015.8
20260831144002 85 88 2.0 7.0 0.00 0.21 0.00 81 1015.9
20260831143000 85 86 2.0 6.0 0.00 0.21 0.00 81 1015.9
20260831142002 85 101 1.0 6.0 0.00 0.21 0.00 82 1015.8
20260831141000 85 86 1.0 7.0 0.00 0.21 0.00 81 1015.6
20260831140005 84 103 1.0 6.0 0.00 0.21 0.00 83 1015.6
20260831135000 83 93 0.0 6.0 0.00 0.21 0.00 84 1015.7
20260831134002 82 92 0.0 3.0 0.00 0.21 0.00 86 1015.5
20260831133000 81 94 0.0 3.0 0.00 0.21 0.00 89 1015.4
20260831132002 80 86 1.0 4.0 0.00 0.21 0.00 92 1015.5
20260831131000 79 104 1.0 3.0 0.00 0.21 0.00 94 1015.5
20260831130004 78 105 0.0 3.0 0.00 0.21 0.00 96 1015.5
20260831124002 77 109 0.0 2.0 0.00 0.21 0.00 96 1015.4
20260831123001 76 109 0.0 2.0 0.00 0.21 0.00 96 1015.1